SCP
0 -0 0 0 0 0 0 -0 -0 -0 0 -0 -0 -0 -0 -0 -0 -0 -0 -0 -0 0 -0 -0 -0 -0 -0 -0 -0 -0 -0 -0 -0 -0 -0 -0 -0 -0 -0 -0 -0 -0 -0
-0 -0 -0 0 0 0 0 0 0 0 0 0 -0 -0 -0 -0 -0 -0 0 0 -0 -0 -0 -0 -0 -0 -0 -0 -0 -0 -0 -0 -0 -0 -0 -0 -0 -0 -0 -0 -0 -0 -0
0 -0 -0 0 0 0 0 0 0 0 0 0 0 0 -0 -0 -0 0 -0 -0 -0 -0 -0 -0 -0 -0 -0 -0 -0 -0 -0 -0 -0 -0 -0 0 0 -0 -0 -0 -0 -0 -0
0 -0 0 -0 0 0 0 0 0 0 0 0 0 0 0 0 0 -0 -0 -0 -0 -0 -0 -0 -0 -0 -0 -0 -0 -0 -0 -0 -0 0 0 0 0 -0 -0 -0 -0 -0 -0
0 0 0 -0 0 0 -0 0 0 0 0 0 0 0 0 0 -0 -0 -0 -0 -0 -0 -0 -0 -0 -0 -0 -0 -0 -0 -0 -0 -0 0 0 0 0 -0 -0 -0 -0 -0 0
0 0 0 0 0 0 -0 -0 0 0 0 0 0 0 0 0 0 -0 -0 -0 -0 -0 -0 -0 -0 -0 -0 -0 -0 -0 -0 -0 -0 -0 0 -0 -0 -0 -0 -0 -0 -0 0
0 0 0 0 0 0 0 0 0 0 0 0 0 0 0 0 0 0 0 0 -0 -0 -0 -0 -0 -0 -0 0 0 0 0 -0 0 0 -0 -0 -0 -0 0 -0 -0 -0 0
0 0 0 0 0 0 0 0 0 0 0 0 0 0 0 0 0 0 0 0 0 0 0 0 0 0 0 0 0 0 0 0 0 0 0 -0 0 0 0 0 0 0 0
0 0 0 0 0 0 0 0 0 0 0 0 0 0 0 0 0 0 0 0 0 0 0 0 0 0 0 0 0 0 0 0 0 0 0 -0 0 0 0 0 0 0 0
0 0 0 0 0 0 0 0 0 0 0 0 0 0 0 0 0 0 0 0 0 0 0 0 0 0 0 0 0 0 0 0 0 0 0 0 0 0 0 0 0 0 0
0 0 0 0 0 0 0 0 0 0 0 0 0 0 0 0 0 0 0 0 0 0 0 0 0 0 0 -0 -0 0 0 0 0 0 0 0 0 0 0 0 0 0 0
0 0 0 0 0 0 0 0 0 0 0 0 0 0 0 0 0 0 0 0 0 0 0 0 0 0 0 0 -0 -0 0 0 0 0 0 0 0 0 0 0 0 0 0
0 0 0 0 0 0 0 0 0 0 0 0 0 0 0 0 0 0 0 0 0 0 0 0 0 0 0 0 -0 -0 0 0 0 0 0 0 0 0 0 0 0 0 0
0 0 0 0 0 0 0 0 0 0 0 0 0 0 0 0 0 0 0 0 0 0 0 0 0 0 0 0 0 -0 0 0 0 0 0 0 0 0 0 0 0 0 0
0 0 0 0 0 0 0 0 0 0 0 0 0 0 0 0 0 0 0 0 0 0 0 0 0 0 0 0 0 0 0 0 0 0 0 0 0 0 0 0 0 0 0
0 0 0 0 0 0 0 0 0 0 0 0 0 0 0 0 0 0 0 0 0 0 0 0 0 0 0 0 0 0 0 0 0 0 0 0 0 0 0 0 0 0 0
0 0 0 0 0 0 0 0 0 0 0 0 0 0 0 0 0 0 0 0 0 0 0 0 0 0 0 0 0 0 0 0 0 0 0 0 0 0 0 0 0 0 0
0 0 0 0 0 0 0 0 0 0 0 0 0 0 0 0 0 0 1 0 0 0 0 0 0 0 0 0 0 0 0 0 0 0 0 0 0 0 0 0 0 0 0
0 0 0 0 0 0 0 0 0 0 0 0 0 0 0 0 0 0 1 1 0 0 0 0 0 0 0 0 0 0 0 0 0 0 0 0 0 0 0 0 0 0 0
0 0 0 0 0 0 0 0 0 0 0 0 0 0 0 0 0 0 1 1 0 0 0 0 0 0 0 0 0 0 0 0 0 0 0 0 0 0 0 0 0 0 0
0 0 0 0 0 0 0 0 0 0 0 0 0 0 0 0 0 0 0 1 1 0 0 0 0 0 0 0 0 0 0 0 0 0 0 0 0 0 0 0 0 0 0
0 0 0 0 0 0 0 0 0 0 0 0 0 0 0 0 0 0 0 0 1 1 0 0 0 0 0 0 0 0 0 0 0 0 0 0 0 0 0 0 0 0 0
-0 -0 -0 0 0 0 0 0 0 0 0 0 0 0 0 0 0 0 0 0 0 1 1 1 0 0 0 0 0 0 0 0 0 0 0 0 0 0 0 0 0 0 0
0 -0 0 0 0 0 0 0 0 0 0 0 0 0 0 0 0 0 0 0 0 0 0 1 1 0 0 0 0 0 0 0 0 0 0 0 0 0 0 0 0 0 0
0 0 0 0 0 0 0 0 0 0 0 0 0 0 0 0 0 0 0 0 0 0 0 0 1 0 0 0 0 0 0 0 0 0 0 0 0 0 0 0 0 0 0
0 0 0 0 0 0 0 0 0 0 0 0 0 0 0 0 0 0 0 0 0 0 0 0 0 0 0 0 0 0 0 0 0 0 0 0 0 0 0 0 0 0 0
Wind_Speed_500mb
11 18 17 18 19 16 14 13 14 16 17 17 19 21 24 28 27 26 25 27 29 29 23 21 17 16 16 17 17 19 24 26 31 31 27 26 29 26 27 22 25 32 38
12 17 19 19 20 16 14 12 12 14 16 17 17 20 26 27 26 24 22 24 25 27 23 22 20 20 20 22 27 29 31 33 28 27 24 23 22 23 24 25 31 33 32
19 16 22 22 20 17 13 12 12 12 17 16 15 17 23 24 21 20 19 16 25 29 20 21 19 19 20 25 26 31 32 31 29 23 22 23 27 34 26 18 23 31 32
21 18 19 22 22 19 15 14 12 11 15 15 12 16 21 20 19 20 20 27 33 21 16 17 16 16 20 22 25 28 24 19 20 21 15 18 25 32 26 16 24 28 29
17 19 15 20 20 19 17 16 12 12 12 15 8 12 19 19 16 18 23 30 24 13 11 13 13 14 17 19 20 23 19 16 17 17 18 23 27 21 15 14 23 26 30
15 19 14 16 19 18 17 16 15 12 13 9 6 8 14 18 16 15 20 22 16 13 11 10 11 13 16 17 18 16 16 16 14 13 15 18 24 20 18 16 18 24 25
13 19 18 15 17 19 18 17 17 14 13 8 6 9 11 16 18 14 17 15 13 10 9 10 11 12 16 17 14 12 16 14 15 10 7 12 13 11 17 17 13 19 19
12 18 17 16 16 20 21 19 18 16 15 13 9 11 12 15 19 19 16 15 13 8 6 7 10 13 17 18 15 11 12 16 12 6 7 11 14 11 13 15 12 14 15
13 14 14 16 16 20 23 22 22 20 19 16 14 15 15 16 17 20 17 17 14 9 6 6 9 14 17 17 18 13 11 9 9 9 7 7 12 10 10 8 8 9 10
14 16 16 16 18 22 24 25 25 23 21 19 19 20 20 20 20 21 20 19 18 13 8 6 9 13 16 19 20 15 12 10 11 12 9 3 6 9 8 6 6 7 7
5 12 15 21 21 20 25 27 28 28 27 25 24 24 23 23 24 23 25 23 22 18 13 9 10 13 17 21 24 21 16 13 13 11 5 3 4 5 5 4 3 4 4
12 11 15 20 25 26 25 26 29 31 32 31 30 28 28 27 27 27 27 28 26 25 20 15 15 16 17 20 24 25 22 16 12 10 4 3 5 5 4 4 3 1 1
25 24 23 22 27 29 30 33 33 33 36 37 37 35 32 32 33 33 30 36 33 33 29 23 21 20 20 21 25 27 25 21 16 10 8 8 10 10 9 7 5 5 4
38 38 35 35 33 31 34 34 38 40 42 41 42 41 41 39 40 40 38 37 40 36 35 29 25 23 24 24 27 31 29 26 21 16 12 15 14 14 13 12 10 10 9
46 44 46 45 45 45 42 36 40 45 46 46 44 46 49 48 48 45 45 41 43 42 40 36 32 30 29 29 30 36 35 32 29 24 18 19 19 19 18 16 15 14 14
36 38 38 43 45 49 53 51 48 45 44 46 49 50 52 55 55 53 52 50 48 45 42 41 39 35 35 36 35 34 39 37 35 31 25 27 24 24 24 23 21 20 19
40 40 39 41 42 45 47 54 58 57 53 51 50 51 53 56 61 61 59 58 56 53 46 47 45 41 41 42 43 40 37 37 40 38 34 36 32 31 29 29 27 25 23
44 41 41 45 47 49 51 52 55 59 64 64 59 56 55 56 60 68 70 68 62 61 54 56 51 47 47 45 47 44 43 40 41 41 43 43 40 37 36 33 30 28 27
37 37 40 41 42 44 47 53 57 60 63 67 70 67 62 60 62 66 73 75 71 67 63 62 59 55 54 50 50 47 44 46 46 47 49 50 46 43 41 39 36 32 28
24 30 33 32 43 48 52 54 60 64 66 68 72 75 74 70 65 65 72 71 75 77 74 71 68 64 62 55 48 50 51 51 53 57 55 50 50 47 44 43 40 38 34
22 27 33 43 47 57 66 74 72 70 69 71 74 75 77 80 76 71 67 76 76 78 78 79 75 72 67 61 55 58 58 58 61 63 61 60 58 56 52 50 46 44 40
43 48 55 61 66 73 83 80 81 80 78 75 72 75 77 80 81 80 72 71 78 80 80 81 81 79 75 70 70 66 56 65 72 70 70 69 69 63 62 59 54 51 47
66 70 75 79 84 87 80 78 81 83 85 85 79 74 75 76 81 85 82 75 73 73 82 80 85 81 81 81 80 62 29 37 44 66 79 77 75 71 68 65 63 58 55
80 82 84 82 77 66 59 66 73 86 89 89 83 74 70 71 72 77 87 84 75 75 79 81 81 89 86 89 87 91 79 48 34 29 46 59 72 74 75 70 67 65 63
67 72 61 53 51 48 48 56 64 78 89 87 84 76 70 68 69 67 68 81 88 79 76 77 77 88 85 89 90 89 96 87 71 56 48 49 51 57 58 64 66 68 64
54 58 56 50 50 47 50 56 61 66 75 81 82 77 72 67 66 69 62 62 72 88 85 75 75 80 84 87 90 101 90 88 94 80 68 72 60 58 55 54 53 56 57
Wind_Direction_500mb
115 161 175 175 167 150 138 122 115 104 96 83 75 93 105 112 113 112 111 110 108 114 113 100 89 83 89 95 94 95 93 90 99 102 98 92 101 91 77 73 64 64 81
203 168 179 185 178 167 154 146 129 115 105 91 81 102 113 113 114 115 112 120 118 130 98 88 83 85 96 97 99 97 92 93 94 102 94 88 81 92 79 66 76 74 75
196 203 186 186 186 180 169 168 146 125 118 106 93 113 123 118 117 118 114 126 138 133 101 85 78 88 98 105 104 96 90 93 99 94 95 96 88 84 83 72 73 78 72
193 204 189 188 186 186 179 172 166 140 128 109 112 130 136 126 116 123 110 121 132 126 98 82 79 89 106 110 108 103 99 88 89 102 103 95 99 91 99 73 66 84 78
184 191 184 188 191 189 185 179 179 157 144 114 107 141 149 138 120 125 122 129 130 122 103 96 89 101 119 122 117 120 122 112 101 96 96 101 96 115 116 68 78 81 80
171 191 180 185 188 196 193 187 181 170 163 124 121 146 163 150 144 144 140 145 141 134 122 108 106 121 132 129 132 125 116 111 108 106 105 112 110 103 97 73 76 86 83
171 180 203 181 195 197 199 194 191 185 185 189 165 171 179 174 161 177 162 158 145 132 126 121 122 134 141 143 137 121 116 113 97 111 138 138 130 134 106 91 72 78 77
172 187 198 209 198 204 207 206 205 201 204 217 203 194 191 186 188 189 181 176 171 154 134 127 133 146 151 156 151 141 134 125 102 56 146 139 132 139 138 128 92 80 77
179 188 205 220 229 216 213 213 213 215 215 220 214 207 204 199 199 189 197 193 191 186 164 148 144 154 159 166 163 158 141 127 103 101 118 161 155 140 129 137 90 84 78
177 194 203 215 237 235 219 219 219 224 225 225 224 216 213 212 211 202 210 211 206 200 198 186 167 166 169 174 176 177 171 163 138 122 108 124 133 141 132 122 103 88 74
176 188 195 221 221 234 238 232 230 229 229 230 230 225 223 221 222 225 223 221 225 224 222 214 197 184 181 180 185 187 194 185 160 150 130 124 168 162 152 137 110 86 65
267 240 221 214 223 226 237 244 250 243 238 236 235 233 231 227 226 231 234 226 226 236 234 224 212 200 196 194 195 194 194 200 191 172 185 196 211 225 204 188 205 217 23
271 261 255 244 238 233 230 235 241 249 248 244 242 239 237 233 231 228 231 227 231 232 237 231 221 213 208 206 204 201 204 216 214 207 222 239 231 238 241 237 244 253 269
279 272 261 259 257 250 245 239 244 244 250 250 245 243 239 237 234 233 235 232 232 238 240 239 234 226 219 215 211 208 212 223 228 229 230 249 245 246 253 254 257 264 270
279 277 273 265 260 260 258 252 246 249 248 251 250 246 244 241 240 237 237 237 235 236 239 244 238 234 230 225 219 214 212 222 236 237 239 252 252 251 255 261 265 267 268
290 286 282 277 273 264 260 254 250 249 250 251 250 247 247 243 242 241 239 238 237 236 238 245 244 242 240 233 226 222 217 221 236 243 248 253 257 259 258 259 262 267 269
285 288 281 280 282 281 270 260 256 250 249 249 251 252 250 248 243 242 242 241 240 240 241 243 242 240 239 238 232 228 225 221 235 243 249 254 256 258 261 261 262 265 270
282 273 278 286 288 285 283 276 266 257 252 247 246 248 250 250 249 245 242 243 243 243 240 243 241 240 238 234 236 234 233 232 237 248 253 254 257 259 261 263 264 265 267
283 281 282 289 290 291 289 286 278 268 258 252 248 244 243 248 249 250 247 245 246 247 246 244 244 241 237 234 233 235 239 241 241 247 255 256 257 260 261 262 262 263 265
254 262 270 273 280 291 294 291 286 280 269 259 252 246 243 242 245 252 252 250 249 249 247 246 243 241 243 241 239 243 240 246 245 246 253 256 256 258 259 260 261 261 265
271 269 267 277 282 288 292 291 286 281 278 271 259 253 246 242 242 244 251 253 249 248 247 248 244 241 241 244 241 245 244 245 246 248 252 254 255 257 259 261 261 263 264
284 290 292 287 282 283 287 281 278 279 277 274 269 258 252 246 242 243 244 251 255 253 251 247 247 243 240 237 231 235 242 246 247 245 248 249 253 255 259 259 261 264 266
290 287 286 282 280 281 279 272 269 269 269 270 269 266 257 252 246 241 242 244 251 253 254 253 251 246 242 239 232 228 222 233 251 252 248 248 250 252 256 258 260 263 265
294 291 289 285 279 274 274 274 270 265 266 266 268 269 264 258 251 245 241 241 246 251 249 254 252 251 246 243 240 233 233 240 235 253 253 252 252 254 256 256 259 260 261
305 302 294 284 274 269 272 277 278 269 262 263 266 270 266 259 253 251 245 243 242 246 252 250 251 255 256 251 247 244 227 234 242 247 263 258 253 256 257 257 258 258 258
317 310 304 294 285 284 278 275 274 270 266 263 262 265 268 265 255 247 247 246 244 244 247 254 255 255 258 258 258 251 248 233 238 240 247 257 260 261 262 261 257 260 257
Wind_Speed_850mb
11 18 17 18 19 16 14 13 14 16 17 17 19 21 24 28 27 26 25 27 29 29 23 21 17 16 16 17 17 19 24 26 31 31 27 26 29 26 27 22 25 32 38
12 17 19 19 20 16 14 12 12 14 16 17 17 20 26 27 26 24 22 24 25 27 23 22 20 20 20 22 27 29 31 33 28 27 24 23 22 23 24 25 31 33 32
19 16 22 22 20 17 13 12 12 12 17 16 15 17 23 24 21 20 19 16 25 29 20 21 19 19 20 25 26 31 32 31 29 23 22 23 27 34 26 18 23 31 32
21 18 19 22 22 19 15 14 12 11 15 15 12 16 21 20 19 20 20 27 33 21 16 17 16 16 20 22 25 28 24 19 20 21 15 18 25 32 26 16 24 28 29
17 19 15 20 20 19 17 16 12 12 12 15 8 12 19 19 16 18 23 30 24 13 11 13 13 14 17 19 20 23 19 16 17 17 18 23 27 21 15 14 23 26 30
15 19 14 16 19 18 17 16 15 12 13 9 6 8 14 18 16 15 20 22 16 13 11 10 11 13 16 17 18 16 16 16 14 13 15 18 24 20 18 16 18 24 25
13 19 18 15 17 19 18 17 17 14 13 8 6 9 11 16 18 14 17 15 13 10 9 10 11 12 16 17 14 12 16 14 15 10 7 12 13 11 17 17 13 19 19
12 18 17 16 16 20 21 19 18 16 15 13 9 11 12 15 19 19 16 15 13 8 6 7 10 13 17 18 15 11 12 16 12 6 7 11 14 11 13 15 12 14 15
13 14 14 16 16 20 23 22 22 20 19 16 14 15 15 16 17 20 17 17 14 9 6 6 9 14 17 17 18 13 11 9 9 9 7 7 12 10 10 8 8 9 10
14 16 16 16 18 22 24 25 25 23 21 19 19 20 20 20 20 21 20 19 18 13 8 6 9 13 16 19 20 15 12 10 11 12 9 3 6 9 8 6 6 7 7
5 12 15 21 21 20 25 27 28 28 27 25 24 24 23 23 24 23 25 23 22 18 13 9 10 13 17 21 24 21 16 13 13 11 5 3 4 5 5 4 3 4 4
12 11 15 20 25 26 25 26 29 31 32 31 30 28 28 27 27 27 27 28 26 25 20 15 15 16 17 20 24 25 22 16 12 10 4 3 5 5 4 4 3 1 1
25 24 23 22 27 29 30 33 33 33 36 37 37 35 32 32 33 33 30 36 33 33 29 23 21 20 20 21 25 27 25 21 16 10 8 8 10 10 9 7 5 5 4
38 38 35 35 33 31 34 34 38 40 42 41 42 41 41 39 40 40 38 37 40 36 35 29 25 23 24 24 27 31 29 26 21 16 12 15 14 14 13 12 10 10 9
46 44 46 45 45 45 42 36 40 45 46 46 44 46 49 48 48 45 45 41 43 42 40 36 32 30 29 29 30 36 35 32 29 24 18 19 19 19 18 16 15 14 14
36 38 38 43 45 49 53 51 48 45 44 46 49 50 52 55 55 53 52 50 48 45 42 41 39 35 35 36 35 34 39 37 35 31 25 27 24 24 24 23 21 20 19
40 40 39 41 42 45 47 54 58 57 53 51 50 51 53 56 61 61 59 58 56 53 46 47 45 41 41 42 43 40 37 37 40 38 34 36 32 31 29 29 27 25 23
44 41 41 45 47 49 51 52 55 59 64 64 59 56 55 56 60 68 70 68 62 61 54 56 51 47 47 45 47 44 43 40 41 41 43 43 40 37 36 33 30 28 27
37 37 40 41 42 44 47 53 57 60 63 67 70 67 62 60 62 66 73 75 71 67 63 62 59 55 54 50 50 47 44 46 46 47 49 50 46 43 41 39 36 32 28
24 30 33 32 43 48 52 54 60 64 66 68 72 75 74 70 65 65 72 71 75 77 74 71 68 64 62 55 48 50 51 51 53 57 55 50 50 47 44 43 40 38 34
22 27 33 43 47 57 66 74 72 70 69 71 74 75 77 80 76 71 67 76 76 78 78 79 75 72 67 61 55 58 58 58 61 63 61 60 58 56 52 50 46 44 40
43 48 55 61 66 73 83 80 81 80 78 75 72 75 77 80 81 80 72 71 78 80 80 81 81 79 75 70 70 66 56 65 72 70 70 69 69 63 62 59 54 51 47
66 70 75 79 84 87 80 78 81 83 85 85 79 74 75 76 81 85 82 75 73 73 82 80 85 81 81 81 80 62 29 37 44 66 79 77 75 71 68 65 63 58 55
80 82 84 82 77 66 59 66 73 86 89 89 83 74 70 71 72 77 87 84 75 75 79 81 81 89 86 89 87 91 79 48 34 29 46 59 72 74 75 70 67 65 63
67 72 61 53 51 48 48 56 64 78 89 87 84 76 70 68 69 67 68 81 88 79 76 77 77 88 85 89 90 89 96 87 71 56 48 49 51 57 58 64 66 68 64
54 58 56 50 50 47 50 56 61 66 75 81 82 77 72 67 66 69 62 62 72 88 85 75 75 80 84 87 90 101 90 88 94 80 68 72 60 58 55 54 53 56 57
Wind_Direction_850mb
115 161 175 175 167 150 138 122 115 104 96 83 75 93 105 112 113 112 111 110 108 114 113 100 89 83 89 95 94 95 93 90 99 102 98 92 101 91 77 73 64 64 81
203 168 179 185 178 167 154 146 129 115 105 91 81 102 113 113 114 115 112 120 118 130 98 88 83 85 96 97 99 97 92 93 94 102 94 88 81 92 79 66 76 74 75
196 203 186 186 186 180 169 168 146 125 118 106 93 113 123 118 117 118 114 126 138 133 101 85 78 88 98 105 104 96 90 93 99 94 95 96 88 84 83 72 73 78 72
193 204 189 188 186 186 179 172 166 140 128 109 112 130 136 126 116 123 110 121 132 126 98 82 79 89 106 110 108 103 99 88 89 102 103 95 99 91 99 73 66 84 78
184 191 184 188 191 189 185 179 179 157 144 114 107 141 149 138 120 125 122 129 130 122 103 96 89 101 119 122 117 120 122 112 101 96 96 101 96 115 116 68 78 81 80
171 191 180 185 188 196 193 187 181 170 163 124 121 146 163 150 144 144 140 145 141 134 122 108 106 121 132 129 132 125 116 111 108 106 105 112 110 103 97 73 76 86 83
171 180 203 181 195 197 199 194 191 185 185 189 165 171 179 174 161 177 162 158 145 132 126 121 122 134 141 143 137 121 116 113 97 111 138 138 130 134 106 91 72 78 77
172 187 198 209 198 204 207 206 205 201 204 217 203 194 191 186 188 189 181 176 171 154 134 127 133 146 151 156 151 141 134 125 102 56 146 139 132 139 138 128 92 80 77
179 188 205 220 229 216 213 213 213 215 215 220 214 207 204 199 199 189 197 193 191 186 164 148 144 154 159 166 163 158 141 127 103 101 118 161 155 140 129 137 90 84 78
177 194 203 215 237 235 219 219 219 224 225 225 224 216 213 212 211 202 210 211 206 200 198 186 167 166 169 174 176 177 171 163 138 122 108 124 133 141 132 122 103 88 74
176 188 195 221 221 234 238 232 230 229 229 230 230 225 223 221 222 225 223 221 225 224 222 214 197 184 181 180 185 187 194 185 160 150 130 124 168 162 152 137 110 86 65
267 240 221 214 223 226 237 244 250 243 238 236 235 233 231 227 226 231 234 226 226 236 234 224 212 200 196 194 195 194 194 200 191 172 185 196 211 225 204 188 205 217 23
271 261 255 244 238 233 230 235 241 249 248 244 242 239 237 233 231 228 231 227 231 232 237 231 221 213 208 206 204 201 204 216 214 207 222 239 231 238 241 237 244 253 269
279 272 261 259 257 250 245 239 244 244 250 250 245 243 239 237 234 233 235 232 232 238 240 239 234 226 219 215 211 208 212 223 228 229 230 249 245 246 253 254 257 264 270
279 277 273 265 260 260 258 252 246 249 248 251 250 246 244 241 240 237 237 237 235 236 239 244 238 234 230 225 219 214 212 222 236 237 239 252 252 251 255 261 265 267 268
290 286 282 277 273 264 260 254 250 249 250 251 250 247 247 243 242 241 239 238 237 236 238 245 244 242 240 233 226 222 217 221 236 243 248 253 257 259 258 259 262 267 269
285 288 281 280 282 281 270 260 256 250 249 249 251 252 250 248 243 242 242 241 240 240 241 243 242 240 239 238 232 228 225 221 235 243 249 254 256 258 261 261 262 265 270
282 273 278 286 288 285 283 276 266 257 252 247 246 248 250 250 249 245 242 243 243 243 240 243 241 240 238 234 236 234 233 232 237 248 253 254 257 259 261 263 264 265 267
283 281 282 289 290 291 289 286 278 268 258 252 248 244 243 248 249 250 247 245 246 247 246 244 244 241 237 234 233 235 239 241 241 247 255 256 257 260 261 262 262 263 265
254 262 270 273 280 291 294 291 286 280 269 259 252 246 243 242 245 252 252 250 249 249 247 246 243 241 243 241 239 243 240 246 245 246 253 256 256 258 259 260 261 261 265
271 269 267 277 282 288 292 291 286 281 278 271 259 253 246 242 242 244 251 253 249 248 247 248 244 241 241 244 241 245 244 245 246 248 252 254 255 257 259 261 261 263 264
284 290 292 287 282 283 287 281 278 279 277 274 269 258 252 246 242 243 244 251 255 253 251 247 247 243 240 237 231 235 242 246 247 245 248 249 253 255 259 259 261 264 266
290 287 286 282 280 281 279 272 269 269 269 270 269 266 257 252 246 241 242 244 251 253 254 253 251 246 242 239 232 228 222 233 251 252 248 248 250 252 256 258 260 263 265
294 291 289 285 279 274 274 274 270 265 266 266 268 269 264 258 251 245 241 241 246 251 249 254 252 251 246 243 240 233 233 240 235 253 253 252 252 254 256 256 259 260 261
305 302 294 284 274 269 272 277 278 269 262 263 266 270 266 259 253 251 245 243 242 246 252 250 251 255 256 251 247 244 227 234 242 247 263 258 253 256 257 257 258 258 258
317 310 304 294 285 284 278 275 274 270 266 263 262 265 268 265 255 247 247 246 244 244 247 254 255 255 258 258 258 251 248 233 238 240 247 257 260 261 262 261 257 260 257